SDM6326 UMKK-ULLI

Flight info

Callsign SDM6326
Flight time N/A
Altitude 37000
Route PELUG DCT KEDUX DCT PIVAX DCT PINIX DCT PIRUX DCT PISIM DCT PIDIN DCT ARANS/K0839F370 DCT PISIS DCT AKARU
Aircraft A319/M-SDE3FGHIRWY/LB1

Departure

Time N/A
Airport Khrabrovo Airport (UMKK)

Arrival

Time 2026-05-05 17:13
Airport Pulkovo Airport (ULLI)
Time Latitude Longitude Altitude Speed Heading
2026-05-05 17:04 59.94415 30.74397 6917 ft 266 kts 114°
2026-05-05 17:04 59.94221 30.75586 6859 ft 261 kts 114°
2026-05-05 17:05 59.91824 30.84014 6727 ft 255 kts 134°
2026-05-05 17:05 59.90727 30.86897 6731 ft 255 kts 136°
2026-05-05 17:05 59.89370 30.89055 6309 ft 241 kts 169°
2026-05-05 17:05 59.87772 30.89091 5830 ft 226 kts 206°
2026-05-05 17:06 59.86526 30.87467 5399 ft 222 kts 226°
2026-05-05 17:06 59.85421 30.85359 5081 ft 219 kts 226°
2026-05-05 17:06 59.84314 30.83351 4743 ft 214 kts 225°
2026-05-05 17:06 59.83207 30.81446 4349 ft 213 kts 225°
2026-05-05 17:07 59.82078 30.79567 3964 ft 211 kts 224°
2026-05-05 17:07 59.80953 30.77719 3651 ft 209 kts 226°
2026-05-05 17:07 59.80013 30.75574 3397 ft 205 kts 242°
2026-05-05 17:07 59.79342 30.73061 3411 ft 209 kts 247°
2026-05-05 17:08 59.78711 30.70480 3301 ft 210 kts 247°
2026-05-05 17:08 59.78073 30.67866 3002 ft 210 kts 247°
2026-05-05 17:08 59.77432 30.65256 2714 ft 208 kts 248°
2026-05-05 17:08 59.76802 30.62700 2498 ft 204 kts 248°
2026-05-05 17:09 59.76199 30.60253 2463 ft 191 kts 250°
2026-05-05 17:09 59.75965 30.57862 2474 ft 172 kts 279°
2026-05-05 17:09 59.76259 30.55690 2583 ft 153 kts 289°
2026-05-05 17:09 59.76593 30.53826 2497 ft 138 kts 289°
2026-05-05 17:10 59.76891 30.52075 2334 ft 130 kts 288°
2026-05-05 17:10 59.77157 30.50394 2150 ft 128 kts 287°
2026-05-05 17:10 59.77415 30.48683 1971 ft 127 kts 287°
2026-05-05 17:10 59.77662 30.47002 1803 ft 127 kts 287°
2026-05-05 17:11 59.77910 30.45303 1633 ft 127 kts 287°
2026-05-05 17:11 59.78156 30.43612 1463 ft 127 kts 287°
2026-05-05 17:11 59.78402 30.41928 1292 ft 127 kts 287°
2026-05-05 17:11 59.78646 30.40256 1123 ft 126 kts 287°
2026-05-05 17:12 59.78892 30.38584 952 ft 126 kts 287°
2026-05-05 17:12 59.79136 30.36930 782 ft 125 kts 287°
2026-05-05 17:12 59.79381 30.35261 594 ft 125 kts 286°
2026-05-05 17:12 59.79625 30.33625 438 ft 125 kts 287°
2026-05-05 17:13 59.79869 30.31979 285 ft 124 kts 285°
2026-05-05 17:13 59.80106 30.30348 105 ft 122 kts 286°
2026-05-05 17:13 59.80314 30.28959 86 ft 81 kts 286°
2026-05-05 17:13 59.80426 30.28210 86 ft 31 kts 287°
2026-05-05 17:14 59.80479 30.27855 86 ft 25 kts 286°
2026-05-05 17:14 59.80529 30.27524 86 ft 23 kts 287°
2026-05-05 17:14 59.80575 30.27217 86 ft 23 kts 286°
2026-05-05 17:14 59.80620 30.26918 86 ft 22 kts 287°
2026-05-05 17:15 59.80645 30.26730 86 ft 9 kts 270°
2026-05-05 17:15 59.80619 30.26652 86 ft 7 kts 205°
2026-05-05 17:15 59.80577 30.26626 86 ft 6 kts 198°
2026-05-05 17:15 59.80539 30.26602 86 ft 0 kts 197°
2026-05-05 17:16 59.80523 30.26592 86 ft 4 kts 197°
2026-05-05 17:17 59.80481 30.26568 86 ft 7 kts 195°
2026-05-05 17:17 59.80437 30.26610 86 ft 8 kts 120°
2026-05-05 17:17 59.80419 30.26714 86 ft 6 kts 107°
2026-05-05 17:17 59.80381 30.26750 86 ft 8 kts 197°
2026-05-05 17:18 59.80322 30.26716 86 ft 9 kts 196°
2026-05-05 17:18 59.80259 30.26679 86 ft 10 kts 196°
2026-05-05 17:18 59.80194 30.26640 86 ft 9 kts 196°
2026-05-05 17:18 59.80136 30.26607 86 ft 7 kts 196°
2026-05-05 17:19 59.80095 30.26581 86 ft 5 kts 197°
2026-05-05 17:19 59.80071 30.26549 86 ft 4 kts 244°
2026-05-05 17:19 59.80074 30.26484 86 ft 5 kts 284°
2026-05-05 17:19 59.80078 30.26456 86 ft 0 kts 285°